Flag for Canada Weather past 2 weeks in Abbotsford, British Columbia, Canada

Now
63 °F

Broken clouds.


Feels Like: 63 °F
Forecast: 52 / 60 °F
Wind: 17 mph from Southwest

Location: Abbotsford

Current Time: Sep 30, 2014 at 3:40:39 PM

Latest Report: Sep 30, 2014 at 3:00 PM


Visibility: 25 mi

Pressure: 30.07 "Hg

Humidity: 59%

Dew point: 48 °F

Location of AbbotsfordLocation

Historic Weather in Abbotsford — Graph

°F

Abbotsford temperature yesterday

Maximum temperature yesterday: 61 °F (at 4:00 PM)
Minimum temperature yesterday: 48 °F (at 6:00 AM)
Average temperature yesterday: 55 °F

Past Weeks' High & Low Weather Summary

 TemperatureHumidityPressure
High86 °F (Sep 15, 3:00 PM)100% (Sep 17, 11:00 PM)30.17 "Hg (Sep 17, 11:00 PM)
Low48 °F (Sep 16, 7:00 AM)22% (Sep 15, 4:00 PM)29.66 "Hg (Sep 24, 1:00 AM)
Average61 °F87%29.92 "Hg
* Reported Sep 15 2:00 PM — Sep 30 2:00 PM, Abbotsford, Weather by CustomWeather, © 2014

Note: Actual official high and low records may vary slightly from our data, if they occured in-between our weather recording intervals... More about our weather records

Advertising

Abbotsford weather history for previous 24 hours

 ConditionsComfort  
Time TempWeatherWind HumidityBarometerVisibility
2:00 PM
Sep 30
63 °FPartly sunny.14 mph64%30.07 "Hg25 mi
1:00 PM61 °FPartly sunny.14 mph72%30.07 "Hg20 mi
12:00 PM61 °FPartly sunny.13 mph68%30.06 "Hg20 mi
11:00 AM59 °FBroken clouds.10 mph77%30.06 "Hg20 mi
10:00 AM57 °FPartly sunny.8 mph82%30.05 "Hg20 mi
7:00 AM52 °FPartly cloudy.3 mph94%30.00 "Hg15 mi
6:00 AM54 °FPassing clouds.8 mph94%29.99 "Hg10 mi
5:00 AM52 °FPassing clouds.6 mph100%29.98 "Hg10 mi
4:00 AM54 °FPassing clouds.6 mph94%29.97 "Hg10 mi
3:00 AM52 °FPassing clouds.6 mph100%29.97 "Hg10 mi
2:00 AM54 °FPartly cloudy.6 mph94%29.95 "Hg10 mi
1:00 AM54 °FPartly cloudy.7 mph94%29.94 "Hg10 mi
12:00 AM55 °FPartly cloudy.7 mph88%29.93 "Hg10 mi
11:00 PM
Sep 29
55 °FPassing clouds.8 mph94%29.92 "Hg10 mi
10:00 PM57 °FPassing clouds.13 mph88%29.90 "Hg10 mi
9:00 PM55 °FPassing clouds.10 mph94%29.88 "Hg10 mi
8:00 PM55 °FPassing clouds.8 mph94%29.87 "Hg10 mi
7:00 PM59 °FScattered clouds.9 mph88%29.85 "Hg20 mi
6:00 PM61 °FBroken clouds.9 mph88%29.84 "Hg15 mi
5:00 PM61 °FMostly cloudy.9 mph88%29.85 "Hg15 mi
4:00 PM61 °FLow clouds.13 mph88%29.85 "Hg10 mi
3:00 PM59 °FLow clouds.13 mph94%29.85 "Hg7 mi
Weather by CustomWeather, © 2014

See weather overviewHow to use our weather pages